Location: Newark
(3.0500°N, 36.0167°E)
Time: 08:15:49
(UTC+00:00)

A-11 Canister half - Pass Details

Date: 29 August 2019
Orbit: 1527 x 1682 km, 47.3° (Epoch: 21 October)

Event Time Altitude Azimuth Distance (km) Brightness Sun altitude
Rises 05:57:18 0° 241° (WSW) 4,713 11.1 35.1°
Reaches altitude 10° 06:00:42 10° 250° (WSW) 3,746 10.6 35.9°
Maximum altitude 06:09:04 35° 312° (NW) 2,360 10.0 38.0°
Drops below altitude 10° 06:17:42 10° 15° (NNE) 3,849 11.5 40.1°
Sets 06:21:17 0° 24° (NNE) 4,856 12.0 41.0°
